Location: Unspecified
(51.0950°N, 12.9690°E)
Time: 01:25:32
(UTC+00:00)

First-Move - Pass Details

Date: 02 May 2024
Orbit: 538 x 600 km, 97.7° (Epoch: 20 May)

Event Time Altitude Azimuth Distance (km) Brightness Sun altitude
Rises 01:09:10 0° 32° (NNE) 2,874 ? -18.1°
Reaches altitude 10° 01:13:08 10° 69° (ENE) 1,958 ? -17.8°
Maximum altitude 01:14:17 11° 85° (E) 1,892 ? -17.7°
Drops below altitude 10° 01:15:26 10° 101° (E) 1,949 ? -17.6°
Sets 01:19:19 0° 138° (SE) 2,833 ? -17.3°
